[[{"header":{"parameterUnit":"m.s-1","parameterCategory":1,"la1":30.2991,"la2":30.254,"lo1":-89.0895,"lo2":-89.0444,"dy":0.0017,"dx":0.0017,"nx":28,"ny":28,"refTime":"2025-01-05T03:00:00:Z","depth":0,"parameterNumber":2,"parameterNumberName":"U-component_of_WINDS"},"data":[0,0,0,0,0,0,0,0,0,0,0,0,0,0,0,0,0,0,0,0,0,0,0,0,0,0,0,0,0,0,0,0,0,0,0,0,0,0,0,0,0,0,0,0,0,0,0,0,0,0,0,0,0,0,0,0,0,0,-4.169,-4.1691,0,-4.1775,-4.1776,-4.1777,-4.1775,-4.1773,-4.1772,-4.1771,-4.1861,-4.1864,-4.1868,0,0,0,0,0,0,0,0,0,0,0,0,0,-4.1528,-4.1531,-4.169,-4.1691,-4.1692,-4.1775,-4.1776,-4.1778,-4.1775,-4.1773,-4.1772,-4.1771,-4.186,-4.1864,-4.1868,0,0,0,0,0,0,0,0,0,0,0,0,0,-4.1604,-4.1532,-4.169,-4.1701,-4.1702,-4.1775,-4.1776,-4.1778,-4.1775,-4.1773,-4.1772,-4.177,-4.1858,-4.1864,-4.1869,-4.1937,0,0,-4.1885,-4.1887,0,0,0,0,0,0,0,0,-4.16,-4.161,-4.1698,-4.17,-4.1702,-4.1762,-4.1752,-4.1831,-4.1776,-4.1748,-4.1771,-4.1769,-4.183,-4.1837,-4.1857,-4.1941,-4.1945,-4.1885,-4.1888,-4.1891,-4.1892,0,0,0,0,0,0,0,-4.1595,-4.1606,-4.1724,-4.1699,-4.1702,-4.1702,-4.1711,-4.1767,-4.1798,-4.175,-4.175,-4.176,-4.1831,-4.1852,-4.1859,-4.1946,-4.1885,-4.189,-4.1893,-4.1895,-4.2092,-4.2094,0,0,0,0,0,0,-4.1586,-4.1602,-4.1721,-4.1726,-4.1645,-4.1707,-4.1717,-4.1745,-4.1797,-4.1803,-4.1761,-4.1759,-4.1844,-4.1853,-4.1863,-4.1946,-4.1891,-4.1896,-4.1899,-4.209,-4.2092,-4.2094,0,0,0,0,0,0,-4.1583,-4.1597,-4.1718,-4.1664,-4.168,-4.1711,-4.1743,-4.1748,-4.1769,-4.1806,-4.1811,-4.1777,-4.1843,-4.1855,-4.1918,-4.1949,-4.1898,-4.1903,-4.2087,-4.209,-4.2093,-4.2113,0,0,0,0,0,0,-4.1578,-4.1596,-4.1621,-4.1665,-4.1682,-4.1771,-4.1745,-4.175,-4.1778,-4.1776,-4.1822,-4.1828,-4.1843,-4.1911,-4.1924,-4.1955,-4.1907,-4.2085,-4.2089,-4.2092,-4.2109,-4.2116,-4.2122,0,0,0,0,0,-4.1573,-4.1623,-4.1622,-4.1637,-4.1714,-4.1773,-4.1783,-4.1797,-4.178,-4.1806,-4.183,-4.1827,-4.1944,-4.1917,-4.1932,-4.1965,-4.2083,-4.2087,-4.2092,-4.2107,-4.2115,-4.2122,0,0,0,0,0,0,-4.1582,-4.1629,-4.1628,-4.1695,-4.173,-4.1772,-4.1805,-4.1805,-4.1846,-4.1843,-4.1861,-4.1871,-4.1935,-4.1957,-4.1926,-4.2035,-4.2011,-4.2019,-4.2018,-4.2026,-4.2032,-4.2024,-4.1911,0,0,0,0,0,-4.1592,-4.1635,-4.1674,-4.1728,-4.1746,-4.1773,-4.1799,-4.1807,-4.1844,-4.1859,-4.1888,-4.1925,-4.197,-4.1999,-4.2043,-4.2114,-4.2124,-4.2144,-4.215,-4.2155,-4.2161,-4.2201,-4.2211,-4.211,-4.211,-4.211,0,0,-4.1613,-4.1644,-4.1669,-4.1731,-4.1759,-4.1804,-4.1785,-4.1833,-4.1866,-4.1867,-4.1928,-4.1951,-4.1993,-4.2061,-4.2092,-4.2081,-4.2192,-4.2161,-4.2165,-4.2168,-4.2207,-4.2217,-4.2225,-4.2113,-4.2112,-4.2112,0,0,-4.1673,-4.1701,-4.1749,-4.1778,-4.1821,-4.1839,-4.1851,-4.1894,-4.1908,-4.197,-4.1972,-4.2013,-4.209,-4.2121,-4.2147,-4.2221,-4.222,-4.2235,-4.2267,-4.2306,-4.2314,-4.2321,-4.2347,-4.2357,-4.2242,-4.2242,-4.2242,0,-4.1693,-4.1759,-4.1775,-4.1823,-4.185,-4.1853,-4.1903,-4.1931,-4.1986,-4.2006,-4.1993,-4.2091,-4.212,-4.2195,-4.2213,-4.2234,-4.2249,-4.2229,-4.2311,-4.2318,-4.2325,-4.2351,-4.2361,-4.2243,-4.2243,-4.2243,-4.2243,0,-4.1782,-4.1829,-4.1863,-4.1916,-4.1948,-4.1997,-4.2021,-4.2051,-4.2058,-4.2078,-4.2142,-4.2177,-4.2228,-4.2247,-4.2254,-4.2324,-4.2316,-4.2307,-4.2283,-4.2336,-4.236,-4.237,-4.2246,-4.2245,-4.2245,-4.2244,0,0,-4.1849,-4.1911,-4.1923,-4.1947,-4.1996,-4.2032,-4.2083,-4.2132,-4.2158,-4.2198,-4.224,-4.2307,-4.23,-4.2329,-4.234,-4.2374,-4.2432,-4.2362,-4.2363,-4.2373,-4.2511,-4.2516,-4.2527,-4.2432,-4.2434,-4.2435,-4.2507,0,-4.1913,-4.2,-4.2017,-4.2094,-4.2137,-4.2142,-4.2186,-4.2221,-4.2242,-4.2282,-4.2306,-4.2352,-4.2339,-4.2357,-4.2391,-4.2417,-4.2459,-4.2413,-4.2472,-4.2474,-4.246,-4.254,-4.2545,-4.2611,-4.2517,-4.2518,-4.252,0,-4.1999,-4.204,-4.2121,-4.2165,-4.2184,-4.2223,-4.227,-4.2309,-4.235,-4.2363,-4.2397,-4.2404,-4.2458,-4.2434,-4.2509,-4.2477,-4.2503,-4.252,-4.2523,-4.2528,-4.2499,-4.2546,-4.2632,-4.2642,-4.2535,-4.2534,-4.2533,0,-4.2039,-4.2114,-4.2172,-4.2193,-4.2246,-4.2274,-4.2297,-4.2337,-4.2366,-4.2409,-4.2428,-4.2477,-4.2503,-4.2541,-4.2562,-4.2543,-4.2636,-4.2613,-4.2649,-4.2648,-4.2667,-4.2665,-4.2757,-4.2686,-4.2685,-4.2685,-4.2685,0,-4.2109,-4.2158,-4.2191,-4.2226,-4.2282,-4.2302,-4.2357,-4.2381,-4.2416,-4.2458,-4.2466,-4.2505,-4.2531,-4.2574,-4.2592,-4.2652,-4.2664,-4.2676,-4.268,-4.2675,-4.2673,-4.2691,-4.2686,-4.2688,-4.2687,-4.2687,-4.2686,0,-4.2161,-4.2185,-4.2249,-4.2294,-4.2307,-4.2346,-4.2386,-4.2421,-4.2443,-4.2495,-4.2509,-4.2543,-4.2594,-4.262,-4.2684,-4.2696,-4.2764,-4.2765,-4.2749,-4.275,-4.2784,-4.278,-4.289,-4.2906,-4.2824,-4.2825,-4.2826,0,-4.2203,-4.2241,-4.2291,-4.2319,-4.2343,-4.2388,-4.2418,-4.244,-4.2471,-4.2522,-4.2552,-4.2603,-4.2646,-4.2728,-4.2759,-4.2809,-4.2811,-4.2847,-4.2819,-4.2813,-4.2811,-4.2808,-4.2812,-4.2851,-4.2852,-4.2852,-4.2853,0,-4.2275,-4.2286,-4.2328,-4.2375,-4.2411,-4.2449,-4.2487,-4.251,-4.2539,-4.2574,-4.2626,-4.2659,-4.2725,-4.2777,-4.2829,-4.2855,-4.2859,-4.2862,-4.2873,-4.2867,-4.2856,-4.2862,-4.2762,-4.2859,-4.2858,-4.2858,-4.2857,-4.2857,-4.2324,-4.2358,-4.2398,-4.2446,-4.2477,-4.2512,-4.2548,-4.2574,-4.2618,-4.2672,-4.2684,-4.2739,-4.2782,-4.2852,-4.288,-4.2925,-4.2918,-4.2933,-4.2937,-4.294,-4.2942,-4.285,-4.2935,-4.2935,-4.2935,-4.2935,-4.2935,0,-4.2395,-4.2422,-4.2466,-4.2518,-4.2556,-4.2557,-4.26,-4.2631,-4.268,-4.2719,-4.2761,-4.2822,-4.2873,-4.2909,-4.2961,-4.299,-4.2993,-4.3003,-4.3,-4.3006,-4.2946,-4.2931,-4.2999,-4.2999,-4.2999,-4.2999,-4.2999,-4.2999,-4.2437,-4.2495,-4.2511,-4.2585,-4.2612,-4.2665,-4.269,-4.2724,-4.2755,-4.2822,-4.2864,-4.2887,-4.2925,-4.2981,-4.3028,-4.3037,-4.3056,-4.3065,-4.3075,-4.3017,-4.301,-4.3004,-4.299,-4.3069,-4.307,-4.3131,-4.3132,-4.3132]},{"header":{"parameterUnit":"m.s-1","parameterCategory":1,"la1":30.2991,"la2":30.254,"lo1":-89.0895,"lo2":-89.0444,"dy":0.0017,"dx":0.0017,"nx":28,"ny":28,"refTime":"2025-01-05T03:00:00:Z","depth":0,"parameterNumber":3,"parameterNumberName":"V-component_of_WINDS"},"data":[0,0,0,0,0,0,0,0,0,0,0,0,0,0,0,0,0,0,0,0,0,0,0,0,0,0,0,0,0,0,0,0,0,0,0,0,0,0,0,0,0,0,0,0,0,0,0,0,0,0,0,0,0,0,0,0,0,0,4.3307,4.3309,0,4.347,4.3472,4.3474,4.3513,4.3512,4.3511,4.351,4.3678,4.3683,4.3688,0,0,0,0,0,0,0,0,0,0,0,0,0,4.3034,4.3039,4.3307,4.3309,4.3311,4.347,4.3472,4.3474,4.3513,4.3512,4.3511,4.351,4.3676,4.3682,4.3689,0,0,0,0,0,0,0,0,0,0,0,0,0,4.317,4.304,4.3306,4.335,4.3355,4.3469,4.3472,4.3475,4.3514,4.3512,4.351,4.3509,4.3674,4.3682,4.369,4.3772,0,0,4.3715,4.3718,0,0,0,0,0,0,0,0,4.3162,4.318,4.3341,4.3347,4.3353,4.347,4.3437,4.3575,4.3514,4.3454,4.351,4.3508,4.361,4.3623,4.3657,4.378,4.3787,4.3715,4.372,4.3724,4.3726,0,0,0,0,0,0,0,4.3153,4.3173,4.3371,4.3344,4.3351,4.3362,4.338,4.3463,4.3539,4.3459,4.3462,4.3481,4.3613,4.3649,4.3661,4.379,4.3715,4.3722,4.3728,4.3731,4.3994,4.3996,0,0,0,0,0,0,4.3135,4.3165,4.3366,4.3376,4.3252,4.3368,4.3388,4.3434,4.3538,4.3552,4.3482,4.3482,4.3636,4.3652,4.3667,4.3775,4.3724,4.3732,4.3736,4.3992,4.3995,4.3997,0,0,0,0,0,0,4.3129,4.3153,4.336,4.3272,4.3299,4.3375,4.3426,4.3438,4.3474,4.3555,4.3569,4.3505,4.3635,4.3656,4.3747,4.3781,4.3735,4.3743,4.399,4.3993,4.3996,4.3987,0,0,0,0,0,0,4.3121,4.3151,4.3182,4.3272,4.3303,4.3435,4.3428,4.3442,4.3488,4.349,4.3581,4.3594,4.3636,4.3735,4.3755,4.3791,4.3749,4.3987,4.3991,4.3995,4.3985,4.399,4.3994,0,0,0,0,0,4.3112,4.3172,4.3183,4.3207,4.3344,4.3437,4.3455,4.3501,4.3491,4.3524,4.3577,4.3591,4.3774,4.3744,4.3767,4.3806,4.3985,4.399,4.3995,4.3983,4.3989,4.3994,0,0,0,0,0,0,4.3082,4.3184,4.3198,4.3289,4.3354,4.3444,4.3486,4.3505,4.3575,4.3573,4.3628,4.3648,4.3737,4.3781,4.3745,4.3894,4.388,4.3889,4.3862,4.3869,4.3873,4.3861,4.3756,0,0,0,0,0,4.3087,4.3153,4.3239,4.3311,4.3343,4.3409,4.3451,4.3482,4.3552,4.3579,4.3639,4.3706,4.378,4.3826,4.3898,4.3991,4.4014,4.403,4.4034,4.4038,4.4046,4.4103,4.4112,4.4013,4.4013,4.4013,0,0,4.3096,4.316,4.3198,4.3307,4.3361,4.3431,4.3432,4.3504,4.3557,4.359,4.3681,4.3727,4.3807,4.3901,4.3945,4.394,4.4079,4.4044,4.4046,4.4052,4.4109,4.4118,4.4126,4.4016,4.4015,4.4015,0,0,4.3149,4.3202,4.327,4.3325,4.3408,4.3452,4.3468,4.3556,4.3589,4.368,4.3708,4.3772,4.3896,4.3953,4.3998,4.4077,4.4095,4.4099,4.4122,4.4177,4.4185,4.4192,4.4224,4.4234,4.4106,4.4106,4.4106,0,4.315,4.3255,4.3303,4.3376,4.3424,4.3458,4.3529,4.358,4.3682,4.3716,4.3708,4.3867,4.3923,4.4033,4.4053,4.4087,4.411,4.4089,4.418,4.4188,4.4195,4.4226,4.4237,4.4106,4.4106,4.4106,4.4106,0,4.3254,4.3327,4.3372,4.347,4.3524,4.3595,4.3656,4.3705,4.3731,4.3777,4.3872,4.3941,4.4029,4.4057,4.4082,4.4172,4.4167,4.4169,4.4155,4.4204,4.4234,4.4246,4.4107,4.4107,4.4107,4.4107,0,0,4.3291,4.3418,4.3434,4.3481,4.3577,4.3634,4.3709,4.3795,4.3838,4.3907,4.3973,4.4079,4.4083,4.4134,4.4167,4.4215,4.4278,4.4213,4.4215,4.4225,4.4385,4.4384,4.4396,4.429,4.4293,4.4295,4.4379,0,4.3358,4.3491,4.3539,4.3649,4.3719,4.3755,4.382,4.3887,4.3932,4.4,4.405,4.4125,4.4123,4.4155,4.4204,4.426,4.4311,4.4254,4.4354,4.4357,4.4335,4.4411,4.441,4.4486,4.4391,4.4393,4.4394,0,4.3453,4.3525,4.3643,4.3734,4.3765,4.3823,4.3908,4.3971,4.4049,4.4079,4.4138,4.4169,4.4251,4.4232,4.4347,4.4307,4.4351,4.4385,4.439,4.4402,4.4379,4.4428,4.4511,4.4523,4.4412,4.4411,4.441,0,4.3472,4.3599,4.3687,4.3726,4.3833,4.3873,4.392,4.3996,4.4047,4.4122,4.4156,4.4238,4.4285,4.4349,4.4403,4.4384,4.4515,4.4499,4.4544,4.4543,4.4571,4.4568,4.4664,4.4595,4.4595,4.4595,4.4595,0,4.3542,4.3614,4.3698,4.3752,4.3834,4.3889,4.397,4.4019,4.4087,4.4153,4.4189,4.425,4.4316,4.4387,4.443,4.4521,4.4541,4.4569,4.458,4.4567,4.4564,4.4598,4.4594,4.4598,4.4597,4.4597,4.4596,0,4.3578,4.3636,4.3735,4.383,4.3855,4.3912,4.3994,4.4049,4.4097,4.4181,4.4204,4.4279,4.4365,4.4425,4.4534,4.4563,4.4663,4.4672,4.4637,4.4642,4.4685,4.4681,4.4807,4.4828,4.4743,4.4743,4.4744,0,4.3619,4.3676,4.3777,4.3824,4.3871,4.3946,4.3998,4.4055,4.4109,4.4204,4.4249,4.4337,4.4411,4.4547,4.4613,4.4698,4.4711,4.475,4.4724,4.4711,4.4715,4.4712,4.472,4.4754,4.4754,4.4755,4.4755,0,4.3689,4.3716,4.379,4.3875,4.3937,4.4007,4.4077,4.4114,4.4184,4.4243,4.4331,4.4389,4.4502,4.4591,4.4683,4.4733,4.4757,4.4763,4.4778,4.4767,4.4745,4.4761,4.465,4.476,4.4759,4.4759,4.4759,4.4758,4.3731,4.3784,4.3865,4.3947,4.4006,4.4072,4.413,4.4186,4.4261,4.4358,4.4388,4.4481,4.4562,4.4688,4.474,4.4815,4.4812,4.4833,4.484,4.4845,4.4846,4.4732,4.4831,4.4831,4.4831,4.4831,4.4831,0,4.3805,4.3859,4.3934,4.4033,4.4098,4.4115,4.4195,4.4249,4.433,4.4403,4.4476,4.458,4.4667,4.4741,4.4831,4.4878,4.4891,4.49,4.4898,4.491,4.4841,4.482,4.4888,4.4888,4.4887,4.4887,4.4887,4.4887,4.3851,4.3943,4.3981,4.4104,4.4158,4.425,4.4294,4.4357,4.4416,4.453,4.4603,4.465,4.4725,4.4822,4.4904,4.4924,4.4957,4.4963,4.4986,4.492,4.4914,4.4908,4.4889,4.4969,4.4969,4.5048,4.5049,4.505]}]]